EW4462 Weather Reports


Display with metric or nautical units.
time (UTC)temp
F
wind
direction
speed
MPH
gust
MPH
rain 1hr
in
rain 24hr
in
rain mn
in
humidity
%
barometer
mb
20260831120533 71 89 0.0 0.0 0.00 0.00 0.00 86 1012.7
20260831115536 71 90 0.0 0.0 0.00 0.00 0.00 86 1012.7
20260831114556 71 89 0.0 0.0 0.00 0.00 0.00 86 1012.7
20260831112433 71 90 0.0 0.0 0.00 0.00 0.00 86 1012.8
20260831111424 71 90 0.0 0.0 0.00 0.00 0.00 87 1012.8
20260831110443 71 90 0.0 0.0 0.00 0.00 0.00 87 1012.9
20260831105424 71 90 0.0 0.0 0.00 0.00 0.00 87 1012.8
20260831104422 70 90 0.0 0.0 0.00 0.00 0.00 88 1012.9
20260831102232 70 90 0.0 0.0 0.00 0.00 0.00 89 1012.9
20260831101253 70 90 0.0 0.0 0.00 0.00 0.00 89 1012.9
20260831100237 70 90 0.0 0.0 0.00 0.00 0.00 89 1013.0
20260831095254 70 90 0.0 0.0 0.00 0.00 0.00 89 1012.9
20260831094232 70 90 0.0 0.0 0.00 0.00 0.00 89 1013.0
20260831092155 70 90 0.0 0.0 0.00 0.00 0.00 89 1012.9
20260831091207 70 90 0.0 0.0 0.00 0.00 0.00 89 1012.9
20260831085124 70 90 0.0 0.0 0.00 0.00 0.00 89 1013.0
20260831084139 70 90 0.0 0.0 0.00 0.00 0.00 89 1013.0
20260831083139 70 90 0.0 0.0 0.00 0.00 0.00 89 1013.0
20260831081017 70 90 0.0 0.0 0.00 0.00 0.00 89 1013.1
20260831080036 70 90 0.0 0.0 0.00 0.00 0.00 89 1013.2
20260831075015 70 90 0.0 0.0 0.00 0.00 0.00 89 1013.1
20260831074035 70 90 0.0 0.0 0.00 0.00 0.00 89 1013.2
20260831073045 70 90 0.0 0.0 0.00 0.00 0.00 89 1013.3
20260831072106 70 96 0.0 0.0 0.00 0.00 0.00 89 1013.1
20260831071035 70 96 0.0 0.0 0.00 0.00 0.00 89 1013.1
20260831070044 70 100 0.0 0.0 0.00 0.00 0.00 89 1013.2
20260831065037 70 100 0.0 0.0 0.00 0.00 0.00 88 1013.1
20260831064042 70 100 0.0 0.0 0.00 0.00 0.00 88 1013.1
20260831063107 70 100 0.0 0.0 0.00 0.00 0.00 89 1013.0
20260831060923 70 100 0.0 0.0 0.00 0.00 0.00 87 1012.9
20260831055916 70 100 0.0 0.0 0.00 0.00 0.00 87 1012.9
20260831054937 71 100 0.0 0.0 0.00 0.00 0.00 86 1012.9
20260831052810 71 100 0.0 0.0 0.00 0.00 0.00 86 1013.0
20260831051822 71 100 0.0 0.0 0.00 0.00 0.00 86 1012.9
20260831050844 72 100 0.0 0.0 0.00 0.00 0.00 86 1013.0
20260831045852 72 100 0.0 0.0 0.00 0.00 0.00 85 1013.0
20260831044903 72 100 0.0 0.0 0.00 0.00 0.00 85 1012.9
20260831041628 73 100 0.0 0.0 0.00 0.00 0.00 84 1012.6
20260831040626 73 100 0.0 0.0 0.00 0.00 0.00 84 1012.6
20260831035642 73 94 0.0 0.0 0.00 0.00 0.00 84 1012.6
20260831034649 73 94 0.0 0.0 0.00 0.00 0.00 84 1012.4
20260831033617 73 94 0.0 0.0 0.00 0.00 0.00 84 1012.3
20260831032607 74 94 0.0 0.0 0.00 0.00 0.00 83 1012.3
20260831031602 74 94 0.0 0.0 0.00 0.00 0.00 83 1012.2
20260831030605 74 94 0.0 0.0 0.00 0.00 0.00 83 1012.0
20260831023302 74 94 0.0 0.0 0.00 0.00 0.00 82 1012.0
20260831022247 75 96 0.0 0.0 0.00 0.00 0.00 82 1012.0
20260831021308 75 96 0.0 0.0 0.00 0.00 0.00 82 1011.8
20260831020318 75 96 0.0 0.0 0.00 0.00 0.00 82 1011.8
20260831015243 76 90 0.0 0.0 0.00 0.00 0.00 81 1011.6
20260831014220 76 87 0.0 2.0 0.00 0.00 0.00 80 1011.7
20260831013239 77 105 0.0 0.0 0.00 0.00 0.00 79 1011.6
20260831012209 77 92 0.0 0.0 0.00 0.00 0.00 78 1011.5
20260831011201 78 97 0.0 0.0 0.00 0.00 0.00 75 1011.7
20260831005013 80 79 0.0 0.0 0.00 0.00 0.00 72 1011.7
20260831003945 80 74 0.0 0.0 0.00 0.00 0.00 70 1011.6
20260831002918 81 110 0.0 0.0 0.00 0.00 0.00 68 1011.7
20260831001908 82 117 0.0 0.0 0.00 0.00 0.00 68 1011.8
20260831000857 83 88 0.0 0.0 0.00 0.00 0.00 67 1011.7
20260830235829 83 86 0.0 0.0 0.00 0.00 0.00 68 1011.6
20260830234817 84 98 0.0 0.0 0.00 0.00 0.00 68 1011.7
20260830233838 84 97 0.0 0.0 0.00 0.00 0.00 67 1011.6
20260830232838 84 86 0.0 0.0 0.00 0.00 0.00 67 1011.6
20260830231856 83 88 0.0 0.0 0.00 0.00 0.00 68 1011.8
20260830230828 83 123 0.0 0.0 0.00 0.00 0.00 67 1011.8
20260830224723 83 96 0.0 0.0 0.00 0.00 0.00 68 1011.9
20260830223705 84 119 0.0 0.0 0.00 0.00 0.00 66 1012.0
20260830222636 83 103 0.0 0.0 0.00 0.00 0.00 66 1012.0
20260830221632 83 111 0.0 6.0 0.00 0.00 0.00 68 1012.1
20260830220620 84 91 0.0 0.0 0.00 0.00 0.00 67 1012.2
20260830215640 84 119 0.0 0.0 0.00 0.00 0.00 66 1012.3
20260830213511 85 123 0.0 0.0 0.00 0.00 0.00 64 1012.4
20260830212501 85 95 0.0 0.0 0.00 0.00 0.00 64 1012.7
20260830211428 84 80 0.0 0.0 0.00 0.00 0.00 65 1012.7
20260830210429 84 87 0.0 0.0 0.00 0.00 0.00 67 1012.7
20260830205444 84 119 0.0 0.0 0.00 0.00 0.00 67 1012.7
20260830204443 84 100 0.0 0.0 0.00 0.00 0.00 66 1013.0
20260830203508 84 127 0.0 0.0 0.00 0.00 0.00 67 1012.8
20260830202448 84 86 0.0 0.0 0.00 0.00 0.00 66 1012.8
20260830201432 84 117 0.0 1.0 0.00 0.00 0.00 66 1012.8
20260830200441 85 84 0.0 0.0 0.00 0.00 0.00 67 1012.8
20260830194310 84 118 0.0 7.0 0.00 0.00 0.00 67 1012.8
20260830193255 84 90 0.0 0.0 0.00 0.00 0.00 68 1013.0
20260830192308 83 128 0.0 0.0 0.00 0.00 0.00 70 1012.9
20260830191316 84 101 0.0 0.0 0.00 0.00 0.00 68 1013.0
20260830190247 84 116 0.0 8.0 0.00 0.00 0.00 67 1013.1
20260830185309 84 88 0.0 0.0 0.00 0.00 0.00 69 1013.2
20260830184250 84 101 0.0 0.0 0.00 0.00 0.00 69 1013.2
20260830183309 83 122 0.0 0.0 0.00 0.00 0.00 69 1013.1
20260830182243 83 88 0.0 0.0 0.00 0.00 0.00 69 1013.2
20260830181303 83 117 0.0 0.0 0.00 0.00 0.00 69 1013.3
20260830173931 83 84 0.0 0.0 0.00 0.00 0.00 70 1013.0
20260830172908 83 93 0.0 0.0 0.00 0.00 0.00 71 1013.0
20260830171930 82 87 0.0 0.0 0.00 0.00 0.00 71 1012.8
20260830170902 83 115 0.0 0.0 0.00 0.00 0.00 69 1012.7
20260830165849 83 88 0.0 0.0 0.00 0.00 0.00 69 1012.6
20260830163727 82 84 0.0 0.0 0.00 0.00 0.00 70 1012.6
20260830162700 81 77 0.0 0.0 0.00 0.00 0.00 72 1012.7
20260830161629 81 81 0.0 0.0 0.00 0.00 0.00 75 1012.6
20260830160604 80 84 0.0 0.0 0.00 0.00 0.00 76 1012.6
20260830155538 79 5 0.0 0.0 0.00 0.00 0.00 77 1012.6
20260830154520 79 80 0.0 0.0 0.00 0.00 0.00 79 1012.6
20260830153512 77 73 0.0 0.0 0.00 0.00 0.00 80 1012.6
20260830152522 77 71 0.0 0.0 0.00 0.00 0.00 82 1012.6
20260830150404 75 39 0.0 0.0 0.00 0.00 0.00 84 1012.8
20260830144252 74 38 0.0 0.0 0.00 0.00 0.00 86 1012.7
20260830140939 73 38 0.0 0.0 0.00 0.00 0.00 88 1012.7
20260830135918 73 38 0.0 0.0 0.00 0.00 0.00 88 1012.5
20260830134850 73 38 0.0 0.0 0.00 0.00 0.00 88 1012.4
20260830133815 73 32 0.0 0.0 0.00 0.00 0.00 88 1012.4
20260830132826 73 33 0.0 0.0 0.00 0.00 0.00 88 1012.3
20260830130639 73 33 0.0 0.0 0.00 0.00 0.00 88 1012.2
20260830125620 73 33 0.0 0.0 0.00 0.00 0.00 88 1012.2
20260830124611 73 33 0.0 0.0 0.00 0.00 0.00 88 1012.1
20260830122509 73 34 0.0 0.0 0.00 0.00 0.00 88 1012.1
20260830121449 73 28 0.0 0.0 0.00 0.00 0.00 89 1012.0